Skip Page Navigation
NASA JPL Caltech
NASA Logo - Jet Propulsion Laboratory + View the NASA Portal
+ Center for Near-Earth Object Studies
JPL Home Earth Solar System Stars & Galaxies Technology
JPL Solar System Dynamics
BODIES ORBITS EPHEMERIDES TOOLS PHYSICAL DATA DISCOVERY FAQ SITE MAP
JPL Small-Body Database Browser
Search: [ help ]  
160596 (1999 RT152)
Classification: Main-belt Asteroid          SPK-ID: 2160596
Ephemeris | Orbit Diagram | Orbital Elements | Mission Design | Physical Parameters | Discovery Circumstances | Close-Approach Data ]

[ show orbit diagram ]
Orbital Elements at Epoch 2459200.5 (2020-Dec-17.0) TDB
Reference: JPL 16 (heliocentric ecliptic J2000)
 Element Value Uncertainty (1-sigma)   Units 
e .185225799008447 7.5682e-08  
a 2.571029340421031 1.4004e-08 au
q 2.094808376567385 1.868e-07 au
i 11.6968495994967 3.7135e-06 deg
node 327.6151474811694 3.0056e-05 deg
peri 1.303276039617978 3.5747e-05 deg
M 66.7732520506693 2.3071e-05 deg
tp 2458921.207673657474
(2020-Mar-12.70767366)
9.5047e-05 TDB
period 1505.771164283162
4.12
1.2302e-05
3.368e-08
d
yr
n .2390801527743305 1.9533e-09 deg/d
Q 3.047250304274677 1.6598e-08 au
  Orbit Determination Parameters
   # obs. used (total)      638  
   data-arc span      7834 days (21.45 yr)  
   first obs. used      1999-08-08  
   last obs. used      2021-01-18  
   planetary ephem.      DE441  
   SB-pert. ephem.      SB441-N16  
   condition code      0  
   norm. resid. RMS      .50044  
   source      ORB  
   producer      Otto Matic  
   solution date      2021-Apr-13 20:02:00  

Additional Information
 Earth MOID = 1.0817 au 
 Jupiter MOID = 2.30909 au 
 T_jup = 3.377 
[ show covariance matrix ]

Ephemeris | Orbit Diagram | Orbital Elements | Mission Design | Physical Parameters | Discovery Circumstances | Close-Approach Data ]

Physical Parameter Table
Parameter Symbol Value Units Sigma Reference Notes
absolute magnitude H 15.53   n/a MPCxxxxx  

160596 (1999 RT152)          Discovered 1999-Sep-09 by LINEAR at Socorro
Reference: 20070828/Numbers.arcLast Updated: 2007-08-30

[ show close-approach data ]
Alternate Designations
 1999 RT152 = 2002 GJ51 
Ephemeris | Orbit Diagram | Orbital Elements | Mission Design | Physical Parameters | Discovery Circumstances | Close-Approach Data ]
ABOUT SSD CREDITS/AWARDS PRIVACY/COPYRIGHT GLOSSARY LINKS
FirstGov 2021-May-07 11:37 UT
(server date/time)  
NASA Home Page
Site Manager:   Ryan S. Park
Webmaster  Alan B. Chamberlin